map of APW home
Great Circle Mapper logo
APW - Airport
Location
City:  Apia, Upolu Island, Samoa (Western Samoa)
Name:Faleolo International Airport
ICAO / IATA:NSFA / APW

Details
Type:Airport (Aerodrome, Airfield)
Use:International (customs port of entry)
Latitude:1349'47"S (-13.829666)
Longitude:17159'50"W (-171.997166)
Elevation:58 ft (18 m)
Runways:1
Longest:9843 × 148 ft (3000 × 45 m), paved

Time
Time Zone:UTC-11
Local Time:

Weather
METAR:NSFA 020100Z 10014KT 9999 BKN020 30/24 Q1011
TAF:NSFA 012221Z 0200/0224 10012KT 9999 SCT020 PROB30
TEMPO 0206/0212 7000 SHRA BKN018

Related Locations
Nearby:
Farthest:DRRA: 12449 mi / 20034 km
Tessaoua, NE

Find:

   beyond  
but within

Other Information
Maps:
NOTAMs:
Links:
Sources:

  
flag of Samoa (Western Samoa)   

Sectional Chart

Flight Planning
at skyvector.com

Satellite Image

Google Maps Satellite View

 

Copyright © 2004-2014 Karl L. Swartz. All rights reserved.
The Great Circle Mapper name and logo are trademarks of the Great Circle Mapper.
All other trademarks mentioned herein belong to their respective owners.
Please see credits for attibutions and further copyright information.

  Follow gcmap on Facebook Follow gcmap on Twitter

hCard Microformat

Geo Microformat